Temp
15 15 15 15 15 15 15 15 16 16 16 16 16 16 17 17 17 17 17 17 17 17 18 18 18 18 18 18 18 18 18 18 18 18 18 18 17 17 17 17 16 16 16 16 15 15 15 15 15 14 14 14 14 14 13 13 13 13 13 13 13 13 13 13 13 13 13 13 13
15 15 15 15 15 15 15 15 15 16 16 16 16 16 16 17 17 17 17 17 17 18 18 18 18 18 18 18 18 18 18 18 18 18 18 17 17 17 17 16 16 16 15 15 15 15 15 15 14 14 14 14 14 14 14 14 13 13 13 13 13 13 13 13 13 13 13 13 12
14 15 15 15 15 15 15 15 15 15 16 16 16 16 16 16 16 17 17 17 17 17 18 18 18 18 18 18 18 18 18 18 18 18 18 17 17 17 16 16 16 15 15 15 15 15 15 14 14 14 14 14 14 14 14 14 13 13 13 13 13 13 13 13 13 12 12 12 12
14 14 14 15 15 15 15 15 15 15 15 15 16 16 16 16 16 16 17 17 17 17 18 18 18 18 18 18 18 18 18 18 18 18 17 17 17 17 16 16 15 15 15 15 15 15 14 14 14 14 14 13 13 13 13 13 13 13 13 13 13 13 13 13 12 12 12 12 11
14 14 14 14 14 14 15 15 15 15 15 15 15 15 16 16 16 16 16 17 17 17 17 18 18 18 18 18 18 18 17 17 17 17 17 17 17 17 17 17 16 15 15 15 16 15 14 14 13 13 13 13 13 13 13 13 13 13 13 13 13 12 12 12 12 11 11 11 11
13 14 14 14 14 14 14 14 15 15 15 15 15 15 15 15 16 16 16 16 17 17 17 17 18 18 18 18 18 18 17 17 17 16 16 16 16 17 17 16 16 15 16 16 16 15 15 14 13 13 13 13 13 13 13 13 13 13 13 12 12 12 12 11 11 11 10 10 10
13 13 13 13 13 14 14 14 14 14 15 15 15 15 15 15 15 15 16 16 16 17 17 17 18 18 18 18 18 18 17 17 16 16 16 16 16 16 16 16 15 16 16 16 16 16 15 13 13 13 13 13 13 13 13 13 13 12 12 12 12 11 11 10 10 10 9 9 9
12 12 13 13 13 13 14 14 14 14 14 15 15 15 15 15 15 15 15 15 16 16 17 17 17 17 18 17 17 17 17 16 16 16 16 16 16 16 16 15 16 16 16 16 16 15 14 13 13 13 13 13 13 13 12 12 12 12 12 11 10 10 9 9 9 9 8 8 8
12 12 12 13 13 13 13 14 14 14 14 14 15 15 15 14 14 15 15 15 15 16 16 16 17 17 17 17 17 16 16 16 16 16 16 16 16 15 15 15 15 16 15 15 14 14 13 13 13 13 13 13 12 12 12 12 12 11 11 10 9 9 8 8 8 8 8 8 8
12 12 12 13 13 13 13 13 13 14 14 14 14 14 14 14 14 14 14 15 15 15 15 16 16 16 16 16 16 16 15 15 15 15 15 15 15 15 15 15 15 15 14 14 13 13 13 13 13 13 12 12 12 11 12 12 11 11 10 10 9 9 8 8 8 8 7 7 7
12 12 12 13 13 13 13 13 13 13 14 14 14 14 14 13 14 14 14 14 14 14 14 14 14 15 15 15 15 15 14 14 14 14 14 14 14 14 14 14 14 13 13 13 12 12 13 13 13 12 12 11 11 11 11 11 11 11 10 9 9 8 8 7 7 7 7 6 6
12 12 12 12 12 13 13 13 13 13 13 13 13 13 13 13 13 13 13 13 13 13 13 13 13 13 14 14 13 13 13 13 13 13 13 13 13 13 13 13 13 13 12 12 12 12 12 12 12 12 11 11 11 11 11 11 11 10 9 9 8 8 7 7 6 6 6 6 6
11 12 12 12 12 12 12 13 13 12 12 12 12 12 12 12 12 12 12 13 13 13 12 12 12 12 12 12 12 12 12 12 12 12 12 13 12 12 12 12 12 12 12 12 12 12 12 12 12 11 11 11 11 10 10 10 10 10 9 8 8 7 7 6 6 6 5 5 5
11 11 11 11 11 12 12 12 12 11 11 11 11 11 11 11 11 11 12 12 12 12 12 11 11 11 11 11 11 11 12 12 12 12 12 12 12 12 12 12 12 11 11 11 11 11 11 11 11 10 10 10 10 10 10 10 9 9 8 8 7 6 6 6 5 5 5 5 5
11 11 11 11 11 11 11 11 11 11 10 10 10 10 10 10 11 11 11 12 12 11 11 11 11 11 11 11 11 11 11 12 12 12 12 12 11 11 11 11 11 11 11 11 11 11 11 10 10 9 9 9 9 9 9 9 8 8 7 7 6 5 5 5 5 4 4 4 4
10 10 10 11 11 11 11 10 10 10 10 10 10 10 10 10 10 10 11 11 11 11 11 11 11 11 11 11 11 11 11 11 11 11 11 11 11 11 11 11 10 10 10 10 10 10 10 9 9 9 9 9 9 9 8 8 7 6 5 5 4 4 4 4 4 4 4 4 4
10 10 10 10 10 10 10 10 9 9 9 9 10 10 10 10 10 10 10 10 10 11 11 11 11 11 11 11 11 11 11 11 11 11 11 10 10 10 10 10 9 9 9 9 9 9 9 8 8 8 8 8 8 8 7 7 6 5 4 3 3 3 3 3 3 3 3 3 3
9 9 9 10 9 9 9 9 9 9 9 9 9 9 9 9 10 10 10 10 10 10 11 11 10 10 10 10 10 10 10 10 10 10 10 9 9 9 9 8 8 8 8 8 8 8 8 8 8 7 7 7 7 7 6 6 5 4 3 3 3 3 3 3 3 3 3 3 3
9 9 9 9 9 9 9 9 9 9 9 9 9 9 9 9 9 9 9 9 9 10 10 10 10 10 10 10 9 9 9 9 9 9 8 8 8 8 7 7 7 7 7 7 7 7 7 7 6 6 6 6 6 6 5 5 4 4 3 3 3 3 3 3 3 3 3 3 3
8 8 8 8 8 8 8 8 8 8 8 8 8 8 8 8 8 9 9 9 9 9 9 9 9 9 9 9 8 8 8 8 8 7 7 7 6 6 6 6 6 6 6 6 6 6 6 6 6 6 6 6 6 5 5 4 4 3 3 3 3 3 3 3 3 3 3 3 3
7 7 7 7 7 8 8 8 8 8 8 8 8 8 8 7 8 8 8 8 8 8 8 8 8 8 8 8 7 7 7 7 6 6 6 6 5 5 5 5 5 5 5 5 5 5 5 5 5 5 5 5 5 5 4 4 3 3 3 3 3 3 3 3 3 3 3 3 3
6 6 6 7 7 7 7 7 7 7 7 7 8 7 7 7 7 7 7 7 7 7 7 7 7 7 7 6 6 6 6 5 5 5 5 5 5 4 4 4 4 4 4 5 5 5 5 5 5 5 4 4 4 4 4 4 4 3 3 2 2 2 2 2 2 2 2 2 2
6 6 6 6 6 6 6 6 7 7 7 7 7 7 7 7 6 6 6 6 6 6 6 6 5 5 5 5 5 5 5 5 4 4 4 4 4 4 4 4 4 4 4 4 4 5 5 4 4 4 4 4 4 4 4 3 3 3 3 2 2 2 2 2 2 2 2 2 1
6 5 5 6 6 6 6 6 6 6 6 6 6 6 6 6 6 6 6 5 5 5 5 5 5 4 4 4 4 4 4 4 4 4 4 4 4 4 4 4 4 4 4 4 4 4 4 4 4 4 4 4 3 3 3 3 3 3 3 3 2 2 2 2 2 2 1 1 1
5 5 5 5 5 5 5 6 5 5 5 5 6 6 5 5 5 5 5 5 5 5 5 4 4 4 4 4 4 4 4 4 4 3 3 3 3 4 4 3 3 3 3 3 3 3 3 3 3 3 3 3 3 2 2 2 3 3 3 3 3 2 2 2 1 1 1 1 1
5 5 5 5 5 5 5 5 5 5 5 5 5 5 5 5 5 5 5 4 4 4 4 4 4 4 4 4 4 4 4 3 3 3 3 3 3 3 3 3 2 2 2 2 2 2 2 2 3 3 3 3 3 2 2 2 2 3 3 3 2 2 2 2 1 1 1 1 1
5 5 5 5 5 5 5 5 5 4 4 4 4 4 4 4 4 4 4 4 4 4 4 4 4 3 3 3 3 3 3 3 3 3 3 3 3 3 2 2 2 2 2 2 2 2 2 2 2 2 3 3 3 3 3 3 2 2 2 2 2 2 2 2 1 1 1 1 0
5 5 5 5 5 5 4 4 4 4 4 4 4 4 4 4 4 4 4 4 4 3 3 3 3 3 3 3 3 3 3 3 3 3 3 3 3 2 2 2 2 2 2 2 2 2 2 2 2 2 2 3 3 3 3 3 2 2 2 2 2 2 1 1 1 1 1 0 0
5 5 5 5 5 4 4 4 4 4 4 4 4 4 4 4 4 4 3 3 3 3 3 3 3 3 3 3 3 3 3 3 3 2 2 2 2 2 2 2 2 2 2 2 2 2 1 1 1 1 2 2 2 2 2 2 2 2 1 1 1 1 1 1 1 1 0 0 0
5 5 5 5 4 4 4 4 4 4 4 4 4 4 4 4 3 3 3 3 3 3 3 3 3 3 3 2 2 2 2 2 2 2 2 2 2 2 2 2 2 2 2 2 2 1 1 1 1 1 1 2 2 2 2 2 2 1 1 1 1 1 1 1 0 0 0 -0 -0
5 5 5 4 4 4 4 4 4 4 4 4 4 4 4 3 3 3 3 2 2 2 2 2 3 2 2 2 2 2 2 2 2 2 2 2 2 2 2 2 2 2 2 2 1 1 1 1 1 1 1 2 2 2 2 2 1 1 1 1 1 0 0 -0 -0 -0 -0 -0 -0
5 4 4 4 4 4 3 4 4 4 4 4 4 4 3 3 2 2 2 2 2 2 2 2 2 2 2 2 2 2 1 2 2 2 2 2 2 2 2 2 2 2 2 1 1 1 1 0 0 0 1 1 1 1 1 1 1 1 1 0 -0 -0 -0 -1 -1 -1 -1 -1 -1
4 4 4 4 3 3 3 3 3 4 4 4 4 3 3 2 2 2 2 2 2 2 2 2 2 2 2 2 1 1 2 2 2 2 2 2 2 2 1 1 1 1 1 1 1 1 0 0 0 0 1 1 1 1 1 1 1 0 0 -0 -1 -1 -1 -1 -1 -1 -1 -1 -1
4 3 3 3 3 3 3 3 3 4 4 4 3 3 2 2 2 2 2 2 2 2 2 2 2 2 1 1 1 2 2 2 2 2 2 2 1 1 1 1 1 1 1 1 1 0 0 -0 0 0 1 1 1 1 1 0 0 0 -0 -1 -1 -1 -1 -1 -1 -1 -1 -1 -1
3 3 3 3 3 3 3 3 3 3 3 3 3 2 2 2 2 1 2 2 2 2 2 2 1 1 1 1 1 2 2 2 2 2 2 1 1 1 1 1 1 1 1 0 0 -0 -0 -0 -0 0 0 0 0 0 0 0 0 -0 -0 -0 -1 -1 -1 -1 -1 -1 -1 -1 -1
3 3 3 3 3 3 2 2 3 3 3 3 2 2 2 2 2 2 2 2 2 2 1 1 1 1 1 1 1 1 1 1 1 1 1 1 1 1 1 1 1 1 0 0 -0 -0 -1 -1 -0 -0 0 0 -0 -0 -0 -0 -0 -0 -0 -1 -1 -1 -1 -1 -1 -1 -1 -1 -1
3 3 3 3 3 2 2 2 2 2 2 2 2 2 2 2 2 2 2 2 2 1 1 1 1 1 1 1 1 1 1 1 1 1 1 1 1 0 0 0 0 0 -0 -0 -0 -1 -1 -1 -0 0 0 -0 -0 -0 -0 -0 -0 -1 -1 -1 -1 -1 -1 -1 -1 -1 -1 -1 -1
3 3 3 3 3 2 2 3 3 2 2 2 2 2 2 2 2 2 1 1 1 1 1 1 1 1 1 1 1 1 1 1 1 1 1 0 0 -0 -0 -0 -0 -0 -0 -1 -1 -1 -1 -0 -0 -0 -0 -0 -0 -0 -0 -1 -1 -1 -1 -1 -1 -1 -1 -1 -1 -1 -1 -1 -1
3 3 3 3 3 2 3 3 3 2 2 2 2 2 2 2 2 1 1 1 1 1 1 1 1 1 1 1 1 1 1 1 1 1 0 0 -0 -0 -0 -1 -1 -1 -1 -1 -1 -1 -1 -1 -1 -1 -1 -0 -1 -1 -1 -1 -1 -1 -1 -1 -1 -1 -1 -1 -1 -1 -1 -1 -2
2 2 2 3 2 2 2 2 2 2 2 2 2 2 2 2 2 1 1 1 1 1 1 1 1 1 1 1 1 0 0 -0 -0 -0 -0 -1 -1 -1 -1 -1 -1 -1 -1 -1 -1 -1 -1 -1 -1 -1 -1 -1 -1 -1 -1 -1 -1 -1 -1 -1 -1 -2 -2 -2 -2 -2 -2 -2 -2
2 2 2 2 2 2 2 2 2 2 2 2 2 2 2 2 1 1 1 1 1 1 1 1 1 1 1 1 1 0 0 -0 -1 -1 -1 -1 -1 -1 -1 -1 -1 -1 -1 -1 -1 -1 -1 -1 -1 -1 -1 -1 -1 -1 -1 -1 -1 -1 -1 -2 -2 -2 -2 -2 -2 -2 -2 -2 -2
Height
787 787 787 787 787 787 786 786 786 786 786 786 786 786 786 786 786 786 786 786 786 786 786 787 787 786 786 786 786 786 787 787 788 788 789 790 790 791 792 793 794 795 795 796 796 797 797 798 799 800 801 801 801 801 802 804 805 807 808 809 808 807 806 806 807 808 809 810 810
787 786 786 786 786 786 785 785 785 785 785 785 785 785 785 785 785 785 785 785 785 785 785 785 785 785 785 785 785 785 785 786 786 787 787 788 789 790 791 791 792 793 794 794 795 795 796 796 798 800 800 800 800 800 801 803 804 805 806 806 806 805 805 805 806 807 807 808 809
786 786 785 785 785 785 785 784 784 784 784 784 783 783 783 783 783 783 783 783 783 784 784 784 784 784 784 784 784 784 785 785 785 785 786 786 787 788 789 790 791 792 792 793 793 794 795 795 797 799 799 800 800 800 800 801 802 803 804 804 804 804 804 805 805 806 806 807 807
785 785 785 784 784 784 784 783 783 783 783 782 782 782 782 782 782 781 782 782 782 782 782 783 783 783 783 783 783 783 783 784 784 784 784 785 786 787 788 789 790 791 791 791 791 792 793 795 796 797 798 799 799 799 799 800 800 801 801 802 802 802 803 804 805 805 805 806 806
784 784 784 784 783 783 783 782 782 782 781 781 781 781 781 781 780 780 780 780 780 780 781 781 781 782 782 782 782 782 782 782 783 783 783 784 785 785 786 787 789 790 791 790 790 790 792 794 796 797 797 797 797 798 798 798 799 799 800 800 800 801 802 803 803 804 804 805 805
784 783 783 783 783 782 782 781 781 781 780 780 780 780 780 780 780 779 779 779 779 779 779 780 780 780 781 781 781 781 781 781 781 782 782 783 783 784 785 785 787 788 789 789 788 789 791 792 793 794 795 796 796 796 796 797 797 797 798 798 799 800 801 801 802 803 803 804 804
783 782 782 782 782 781 781 781 780 780 780 780 779 779 779 779 778 778 778 778 777 777 778 778 779 779 779 780 780 780 780 780 780 781 781 781 782 783 783 784 785 786 787 787 787 788 790 791 792 793 794 794 794 794 794 795 795 796 796 797 798 799 800 800 801 801 802 802 802
782 782 781 781 781 780 780 780 780 779 779 779 779 778 778 778 777 777 777 776 776 776 776 777 777 777 778 778 778 779 779 779 779 780 780 780 781 782 782 783 784 785 785 785 786 787 789 790 791 792 792 793 793 793 793 794 794 794 795 796 797 798 798 799 799 800 800 800 800
781 781 780 780 780 780 779 779 779 779 778 778 778 778 777 777 777 776 776 776 775 775 775 775 776 776 776 777 777 778 778 778 779 779 779 780 780 781 782 783 783 784 784 785 786 787 789 790 790 791 791 792 792 792 792 792 793 793 794 795 796 796 797 797 798 798 799 799 799
780 780 780 780 779 779 779 779 778 778 778 778 777 777 777 777 776 776 776 775 775 775 775 775 775 775 775 776 776 777 777 778 778 778 779 779 780 780 781 782 783 783 784 785 786 788 789 790 790 790 791 791 791 791 791 791 792 793 793 794 795 795 796 796 797 797 798 798 798
780 779 779 779 778 778 778 778 778 778 777 777 777 777 776 776 776 776 775 775 775 775 775 775 775 775 775 775 775 776 776 777 777 778 778 779 780 781 781 782 783 784 785 785 787 788 788 789 789 790 790 791 790 790 790 790 791 792 793 793 794 794 795 795 796 796 797 797 797
779 779 778 778 778 777 777 777 777 777 777 777 776 776 776 776 776 776 775 775 775 775 775 775 775 775 775 775 775 776 776 777 778 778 779 780 780 781 782 783 783 784 785 786 786 787 787 788 789 789 790 790 790 790 790 790 791 791 792 792 793 794 794 795 795 795 796 796 796
779 778 778 778 777 777 777 777 777 777 777 776 776 776 776 776 776 776 775 775 775 775 775 775 775 775 775 775 776 776 777 778 778 779 780 780 781 782 782 783 784 785 785 785 786 786 786 787 788 789 790 790 790 789 789 790 790 791 791 792 792 793 793 794 794 795 795 795 796
779 778 778 778 777 777 777 777 777 777 777 776 776 776 776 776 776 776 776 776 775 775 776 776 776 776 776 776 777 778 778 779 780 780 780 781 781 782 782 783 784 784 785 785 786 786 786 787 788 789 790 790 789 789 789 790 790 791 791 791 792 792 793 794 794 795 795 795 796
779 778 778 778 778 777 777 777 777 777 777 777 777 777 777 777 777 777 777 776 776 776 776 776 777 777 777 778 778 779 779 780 780 780 780 781 781 782 782 783 783 784 785 785 786 786 786 787 788 789 789 789 789 789 789 790 790 790 790 791 792 792 793 793 794 795 795 795 796
779 779 778 778 778 777 777 777 777 777 777 777 777 777 777 777 778 778 777 777 777 777 777 777 778 778 778 779 779 779 779 780 780 780 780 781 781 782 782 783 783 784 785 785 786 786 786 787 788 788 789 789 789 789 789 789 790 790 790 791 792 792 793 794 794 795 795 796 796
779 779 779 778 778 778 778 778 778 778 778 778 778 778 778 778 778 778 778 778 778 778 778 778 779 779 779 779 779 780 780 780 780 780 780 781 781 782 782 783 784 784 785 785 786 786 786 786 787 788 789 789 789 789 789 789 790 790 791 791 792 793 793 794 795 795 795 796 796
780 780 779 779 779 779 779 779 779 779 779 779 779 779 779 779 779 779 779 779 779 779 779 779 779 779 779 779 780 780 780 780 780 780 781 781 782 782 783 783 784 785 785 785 785 785 786 786 787 788 789 789 789 789 789 790 790 790 791 792 793 793 794 795 795 795 796 796 796
780 780 780 780 780 780 780 780 779 779 779 779 779 779 779 779 779 779 779 779 779 779 779 779 779 780 780 780 780 780 780 780 780 781 781 782 782 783 783 784 784 785 785 785 785 786 786 787 788 788 789 789 789 789 790 790 791 791 792 793 794 794 795 795 795 796 796 796 797
781 781 780 780 780 780 780 780 780 780 780 780 780 780 780 780 780 780 780 780 780 780 780 780 780 780 780 780 780 780 781 781 781 781 782 782 783 783 783 784 785 785 785 785 785 786 787 787 788 788 789 789 789 790 790 791 791 792 793 794 794 795 795 795 796 796 797 797 798
782 781 781 781 781 781 781 781 780 780 780 781 781 781 780 780 780 780 780 780 780 780 780 780 780 781 781 781 781 781 781 782 782 782 783 783 783 784 784 785 785 785 785 786 786 786 787 787 788 788 789 789 790 790 791 791 792 793 794 794 795 795 796 796 796 797 797 798 798
782 782 782 782 781 781 781 781 781 781 781 781 781 782 782 781 781 781 781 781 781 781 781 781 782 782 782 782 782 782 782 783 783 784 784 784 785 785 785 785 785 786 786 786 786 787 787 787 788 788 789 790 790 790 791 792 793 793 794 795 795 796 796 797 797 798 798 798 799
783 783 782 782 782 782 782 782 782 782 782 782 782 782 782 782 782 783 783 783 782 782 782 783 783 783 783 784 784 784 784 784 784 785 785 785 785 786 786 786 786 786 786 787 787 787 787 787 788 789 789 790 790 791 792 793 793 794 795 795 796 796 797 797 798 798 799 799 800
783 783 783 782 782 782 782 782 782 782 782 782 783 783 783 783 783 784 784 784 784 783 784 784 784 784 785 785 785 785 785 785 785 786 786 786 787 787 787 787 787 787 787 787 788 788 788 788 788 789 790 790 791 792 792 793 794 794 795 796 796 797 797 798 798 799 799 800 800
783 783 783 783 783 783 783 783 783 783 783 783 783 784 784 784 784 784 785 785 785 785 785 785 785 785 785 785 785 786 786 786 786 786 787 787 787 788 788 788 788 788 788 788 789 789 789 789 789 790 790 791 791 792 793 794 794 795 795 796 797 797 798 798 799 799 800 800 801
783 783 783 783 783 783 784 784 784 784 784 784 784 784 784 785 785 785 785 785 785 785 785 785 786 786 786 786 786 786 787 787 787 787 787 788 788 789 789 789 789 789 790 790 790 790 790 790 790 790 791 791 792 793 793 794 795 796 796 797 797 798 798 799 799 800 800 801 801
784 784 784 784 784 784 784 784 784 784 784 785 785 785 785 785 785 785 785 785 786 786 786 786 786 787 787 787 787 787 787 788 788 788 788 789 789 789 790 790 790 791 791 791 791 791 791 791 791 792 792 792 793 794 794 795 795 796 797 797 798 798 799 799 800 800 801 801 802
784 785 785 785 785 785 785 785 785 785 785 785 785 785 785 785 785 786 786 786 786 787 787 787 787 787 788 788 788 788 788 789 789 789 789 789 790 790 791 791 792 792 793 793 793 793 793 793 793 793 793 794 794 795 795 795 796 797 797 798 798 799 799 800 800 800 801 802 802
785 785 785 785 785 785 785 785 785 785 785 786 786 786 786 786 786 786 786 787 787 787 787 788 788 788 788 789 789 789 789 790 790 790 790 790 791 791 792 792 793 794 794 794 794 794 794 794 794 794 794 795 795 795 795 796 797 797 798 798 799 799 800 800 801 801 802 803 803
785 785 785 785 785 786 786 786 786 786 786 786 786 786 786 786 786 787 787 787 788 788 788 789 789 789 789 790 790 790 790 790 791 791 791 791 792 793 793 794 794 795 795 795 795 796 796 796 795 795 795 795 795 796 796 797 797 798 798 799 800 800 801 801 802 802 803 803 804
785 785 785 785 786 786 786 786 786 786 786 786 786 786 786 787 787 788 788 788 789 789 790 790 790 790 790 790 790 791 791 792 792 792 792 793 793 794 795 795 795 795 796 796 797 797 797 797 796 796 796 796 796 797 797 798 798 799 799 800 800 801 802 802 803 803 804 804 804
785 785 785 785 786 786 786 786 786 786 787 787 787 787 787 788 788 789 789 790 790 790 790 790 790 790 791 791 792 792 792 793 793 794 794 794 795 795 796 796 796 797 797 798 798 798 798 798 797 797 797 797 797 798 798 799 799 800 800 801 802 802 803 803 803 804 804 804 805
786 786 786 786 786 786 787 787 787 787 787 787 787 788 788 788 789 790 790 790 790 791 791 791 791 791 792 792 793 793 794 794 795 795 795 796 796 797 797 797 797 798 799 799 799 799 799 798 798 798 798 798 799 799 800 800 800 801 801 802 802 803 803 804 804 804 804 805 805
786 786 786 786 786 787 787 787 787 787 787 788 788 788 789 789 790 790 790 791 791 791 791 792 792 792 793 794 794 795 795 795 796 796 797 797 797 798 798 798 799 799 800 800 800 800 800 799 799 799 799 800 800 800 800 801 801 802 802 803 803 804 804 804 805 805 805 805 805
787 787 787 787 787 787 788 788 788 788 788 788 788 789 789 790 790 790 791 791 791 792 792 793 793 794 794 795 795 795 796 796 797 798 798 798 799 799 799 800 800 800 801 801 800 800 800 800 800 800 800 800 800 801 801 802 802 803 803 804 804 804 805 805 805 805 805 805 805
787 787 787 787 787 788 788 788 789 788 788 788 789 789 790 790 791 791 791 792 792 792 793 794 794 795 795 796 796 797 797 798 798 799 799 799 800 800 800 801 801 801 801 801 801 801 801 801 800 801 801 801 801 802 802 802 803 803 804 804 804 805 805 805 805 805 805 805 805
788 788 788 788 788 788 789 789 789 789 789 789 790 790 790 791 791 792 792 792 793 793 794 795 795 796 796 797 797 798 799 799 799 800 800 800 800 801 801 802 802 802 802 802 802 802 801 801 801 802 802 802 802 802 803 803 803 804 804 804 805 805 805 805 805 805 805 805 805
788 788 788 788 788 789 789 790 790 790 790 790 791 791 791 792 792 793 793 793 794 794 795 795 796 797 797 798 799 799 800 800 800 800 801 801 801 802 802 802 803 803 803 803 803 802 802 802 802 802 803 803 803 803 803 804 804 804 804 805 805 805 805 805 805 805 805 805 805
789 789 789 789 789 789 790 790 790 790 791 791 791 792 792 792 793 793 794 794 795 795 796 796 797 798 799 799 800 800 800 801 801 801 801 802 802 803 803 803 803 804 804 804 803 803 803 803 803 803 803 804 804 804 804 804 804 805 805 805 805 805 806 806 806 806 805 805 805
789 789 789 789 790 790 790 790 791 791 791 792 792 792 793 793 794 794 795 795 795 796 797 797 798 799 799 800 800 801 801 801 802 802 802 803 803 804 804 804 804 804 804 804 804 804 804 804 804 804 804 804 805 805 805 805 805 805 805 805 806 806 806 806 806 806 806 806 806
790 790 790 790 790 790 790 791 791 792 792 792 793 793 793 794 794 795 795 796 796 797 798 798 799 800 800 800 801 801 802 802 802 803 803 804 804 804 804 804 805 805 805 805 805 805 805 805 805 805 805 805 805 805 805 805 805 805 805 806 806 806 806 806 806 806 806 806 806
Wind_Speed
6 7 8 8 9 9 9 10 10 11 12 13 14 15 16 17 17 18 17 16 16 15 14 14 13 13 13 14 16 17 18 18 19 20 21 22 22 22 22 21 21 21 21 20 20 18 16 13 13 15 16 14 13 14 16 18 18 17 17 18 18 18 18 18 19 19 20 21 22
7 8 9 9 9 9 9 9 9 9 9 10 11 12 14 15 16 17 18 18 17 17 16 15 13 12 12 13 14 15 16 16 16 17 18 19 20 20 20 20 20 19 18 17 16 15 15 14 16 18 19 17 15 15 16 18 18 17 17 18 18 18 17 17 18 19 20 20 21
8 8 9 10 10 10 9 9 9 8 8 8 9 10 11 12 14 16 17 18 18 18 17 16 14 13 11 11 12 14 15 16 15 16 16 17 18 19 19 19 18 17 15 13 12 12 13 16 19 21 22 20 19 18 18 18 17 17 17 17 16 15 15 16 17 18 17 17 16
8 9 9 10 10 10 10 9 9 8 8 8 9 9 10 11 12 14 15 16 17 18 18 17 16 14 12 10 11 12 14 15 15 15 15 16 17 18 18 17 16 15 14 13 12 11 14 18 20 21 21 21 20 19 17 16 16 15 14 13 12 12 13 14 14 13 12 12 12
9 9 10 10 10 10 10 10 10 10 10 10 10 10 10 11 11 12 14 15 16 17 18 18 17 15 13 10 10 11 12 14 14 15 15 16 17 17 17 17 17 17 17 15 13 13 16 19 20 20 19 18 17 16 14 14 12 11 9 8 8 9 10 10 10 10 10 10 10
10 10 10 10 10 10 10 10 11 11 11 11 11 11 11 11 12 12 13 14 15 16 17 18 17 16 14 12 10 10 12 13 14 15 16 16 17 17 17 17 18 18 18 16 14 14 16 19 20 19 17 15 14 12 11 9 8 7 6 6 7 8 8 8 9 9 9 9 9
11 11 11 11 11 11 11 11 11 12 12 12 12 13 13 12 12 12 12 13 14 15 16 17 17 16 14 13 11 11 12 14 15 16 16 17 17 17 17 17 18 18 17 15 13 13 16 18 18 16 14 12 10 8 7 6 5 5 5 6 7 8 8 8 8 7 7 7 8
10 11 11 11 11 11 11 12 12 12 13 13 13 13 13 12 12 11 11 11 12 13 14 15 15 15 14 12 11 11 12 14 15 16 17 17 17 16 16 16 15 15 13 12 11 12 14 15 14 12 9 8 7 6 5 5 5 6 6 6 7 8 7 6 5 5 5 6 7
10 10 10 11 11 11 11 11 12 12 12 13 13 12 11 10 10 10 10 10 10 11 12 12 12 12 12 11 11 11 12 14 15 16 16 16 16 15 14 13 11 10 9 9 10 11 12 12 10 8 7 6 6 6 5 5 5 5 5 5 5 5 5 4 4 5 5 6 7
9 9 9 9 10 10 10 10 10 10 11 11 11 10 8 7 7 7 8 8 8 8 9 10 10 11 11 11 11 12 13 14 13 14 15 14 13 12 10 10 10 10 11 11 11 11 10 9 7 6 6 6 6 5 4 4 3 3 2 2 2 3 4 5 5 5 6 6 7
8 8 8 7 7 8 8 8 8 8 7 7 6 5 5 5 5 5 5 5 5 6 7 9 10 11 11 11 12 13 14 14 14 14 13 12 11 11 11 12 12 13 13 12 11 9 8 6 6 6 6 5 4 2 1 1 1 1 1 1 2 3 3 4 5 5 6 6 6
7 6 5 5 4 5 6 6 5 4 3 3 2 2 2 3 3 4 5 5 5 6 8 9 10 10 11 12 13 14 14 14 14 13 13 13 13 14 13 13 12 12 11 10 8 7 5 5 4 4 4 3 1 1 1 1 1 1 1 2 2 3 3 4 5 5 6 6 7
3 2 1 1 2 2 3 3 3 3 2 2 2 2 2 4 5 6 7 7 7 8 9 9 10 10 11 13 14 14 15 15 15 15 15 14 13 12 11 10 9 8 7 6 5 4 4 3 2 2 2 2 2 2 3 2 2 2 2 2 3 3 4 4 5 5 5 6 7
2 3 3 3 4 4 5 5 5 4 4 5 5 5 5 6 7 7 7 8 8 9 10 11 12 13 14 15 16 16 16 15 15 13 12 11 9 8 8 7 7 6 6 6 5 5 4 4 4 3 4 4 5 4 3 2 2 2 3 3 4 4 5 5 5 5 5 6 7
6 6 5 5 5 6 6 6 6 7 8 8 8 8 9 9 9 9 9 9 9 10 12 13 14 15 16 16 16 15 14 12 10 9 8 8 7 7 7 7 7 7 6 6 6 6 6 6 6 5 4 4 4 4 3 3 3 3 3 4 4 5 5 5 5 5 5 6 6
7 7 7 6 6 6 7 8 9 10 11 11 11 11 11 11 11 11 11 12 13 14 14 15 15 15 15 14 13 11 10 9 8 8 8 8 9 9 9 9 9 8 7 7 7 7 7 7 6 5 4 4 4 4 4 4 4 4 4 4 5 5 5 5 5 5 5 5 5
8 8 8 8 8 8 9 10 11 12 12 12 12 12 12 12 12 13 13 14 14 14 14 14 13 12 12 11 10 9 8 9 9 9 10 11 11 11 11 11 10 10 9 8 8 8 8 8 7 6 5 4 4 4 5 5 5 5 5 5 6 6 6 5 5 5 5 5 5
9 10 10 9 10 11 11 12 12 12 12 12 12 12 12 12 12 12 12 12 12 12 12 11 10 10 10 10 9 9 10 11 12 12 12 12 12 12 12 12 11 11 10 10 9 9 9 8 8 7 6 6 5 5 6 6 6 6 6 7 7 7 6 6 6 5 5 5 4
10 11 11 11 11 11 11 11 11 11 11 11 11 11 11 11 11 11 11 10 10 9 9 9 9 9 10 10 11 12 12 13 14 14 14 14 13 13 13 13 12 12 11 11 10 10 9 9 8 7 7 6 6 7 7 7 7 8 8 8 7 7 6 6 6 6 5 5 5
11 11 11 11 10 10 10 10 9 9 9 9 9 10 10 10 9 9 10 10 9 8 8 9 9 10 11 11 13 13 14 14 14 14 14 13 13 13 13 13 13 12 11 11 11 10 10 9 9 8 7 7 8 8 8 8 8 9 8 8 7 6 6 6 6 6 6 6 6
11 11 11 11 10 10 10 9 9 9 9 9 9 9 9 9 9 9 10 10 9 9 9 9 9 10 11 11 12 13 13 13 13 13 13 13 13 13 13 12 12 12 11 11 11 10 10 9 9 8 8 9 9 9 9 9 8 8 7 7 6 6 6 6 6 6 6 6 6
12 11 11 11 10 10 10 10 10 10 10 9 9 9 9 9 10 10 10 10 10 10 10 10 10 10 10 11 11 12 13 13 13 13 13 13 13 13 12 11 12 12 11 11 10 10 9 9 9 9 9 9 9 9 8 8 7 7 7 6 6 6 6 6 6 6 6 6 5
12 11 11 10 10 10 11 11 11 11 11 11 10 10 10 10 10 11 11 11 12 12 12 12 11 11 11 10 10 11 12 13 13 13 13 13 13 13 12 12 12 12 12 11 10 9 9 9 9 9 8 9 8 8 7 7 7 7 6 6 6 6 6 6 6 5 5 5 4
12 11 11 11 11 12 12 12 13 13 13 12 11 11 11 11 11 11 11 12 12 12 13 13 12 12 11 10 10 10 11 12 13 13 13 13 13 13 12 12 12 12 12 11 10 9 9 9 9 9 9 8 8 7 7 7 7 6 6 6 6 6 6 5 5 4 4 3 3
12 12 12 12 13 13 13 13 13 13 13 13 12 12 12 12 12 12 12 13 13 13 13 13 13 12 12 11 11 11 11 12 13 13 14 14 13 13 13 13 13 12 12 11 9 9 8 9 9 9 9 8 7 7 7 7 7 6 6 5 5 5 5 5 5 4 3 3 3
12 12 13 13 13 13 13 13 13 13 13 13 13 13 13 13 13 13 13 13 13 13 13 13 13 12 12 12 12 12 12 12 13 13 14 14 14 13 13 13 14 13 13 11 10 9 9 9 9 9 8 8 7 7 7 7 7 6 6 5 5 5 4 4 4 4 3 2 2
12 12 12 12 13 13 13 13 13 13 13 13 13 13 13 13 13 13 13 13 13 13 13 13 13 12 12 12 12 13 13 13 14 14 14 15 15 15 15 15 15 14 13 11 10 10 9 9 8 8 8 7 7 7 7 7 7 6 6 5 5 4 4 3 3 4 4 3 3
11 12 12 12 12 13 13 13 13 14 14 13 14 14 13 13 13 13 13 13 13 13 13 13 13 13 13 13 14 14 15 15 16 16 16 17 17 17 17 16 15 14 12 11 10 10 9 8 8 8 8 7 7 7 7 7 7 6 6 5 5 4 3 3 3 3 3 4 4
11 12 12 12 12 12 13 13 14 14 14 13 13 13 12 12 12 12 12 13 13 13 13 14 14 14 14 15 16 17 17 18 18 18 18 18 18 17 16 15 14 13 11 11 10 10 9 8 8 7 7 7 6 7 7 7 7 6 6 5 5 4 3 3 3 3 3 3 4
11 12 12 12 12 12 12 13 13 13 13 12 12 11 11 11 11 11 12 12 13 13 13 13 14 16 17 17 18 18 19 18 18 18 18 18 17 16 15 14 13 12 11 10 10 10 9 9 8 7 6 6 6 6 6 6 6 6 5 5 4 4 3 3 3 3 3 3 3
11 12 12 12 12 12 12 12 12 12 11 11 10 10 10 11 11 12 12 12 13 13 13 14 16 17 18 18 18 18 18 18 17 17 17 17 16 15 14 14 13 12 11 10 10 9 9 8 7 6 5 5 5 5 5 5 5 5 5 5 4 4 4 3 3 3 3 2 2
11 11 12 12 12 12 12 12 12 11 10 10 10 10 11 12 12 12 12 13 13 14 15 16 17 18 18 18 18 17 17 17 17 16 16 16 15 14 13 13 12 11 10 10 9 9 8 7 6 5 5 5 5 5 5 5 5 5 5 5 5 4 4 4 4 3 3 2 1
11 11 12 12 13 12 12 12 12 11 10 10 11 12 13 14 14 13 14 14 15 15 16 17 18 18 17 17 16 16 16 16 16 15 15 14 14 13 13 12 11 10 9 9 9 8 8 7 6 5 5 5 5 5 5 5 5 5 6 6 6 5 5 4 4 3 3 2 2
11 12 12 13 13 13 12 12 12 11 11 12 12 13 14 15 15 15 15 15 16 16 17 17 17 16 16 16 16 16 16 16 15 14 13 13 12 12 12 12 10 9 8 8 8 8 7 7 6 6 6 6 6 6 5 5 6 6 6 6 6 5 4 4 3 3 2 2 2
11 12 13 13 13 13 12 12 12 12 13 14 15 15 15 15 15 15 15 16 16 16 16 15 15 15 15 15 16 16 15 15 14 13 12 12 12 12 12 11 10 8 8 8 8 8 7 6 6 5 6 6 6 6 6 6 6 7 6 6 6 5 4 3 3 3 2 2 2
11 12 12 13 13 13 13 13 13 14 15 15 16 16 15 15 15 15 15 15 16 16 15 15 15 15 15 15 15 15 14 13 12 12 11 11 11 12 12 11 10 9 8 8 8 7 6 5 5 5 6 7 7 7 7 7 7 7 7 6 6 5 5 4 4 4 3 3 3
11 11 12 12 13 13 13 13 13 14 15 15 15 15 15 15 15 15 14 14 15 15 15 14 14 15 15 15 15 14 12 11 11 11 11 11 11 12 11 11 10 9 8 8 7 7 6 5 5 5 6 7 7 7 7 7 7 7 7 7 7 6 6 5 5 4 4 3 3
10 10 11 12 12 12 12 12 13 14 14 15 15 15 15 15 15 14 13 13 14 15 15 14 15 15 15 14 14 13 11 10 10 10 10 11 11 11 11 11 9 8 7 7 7 6 5 5 5 5 6 6 7 7 8 8 8 9 8 8 8 7 7 6 5 5 4 4 4
10 10 10 11 11 12 12 12 12 13 13 14 14 14 14 14 14 13 13 13 14 14 15 15 15 15 14 14 13 12 11 10 9 9 10 11 11 11 11 10 9 8 7 7 7 6 6 5 5 5 6 6 6 7 8 9 10 10 10 9 9 8 7 6 6 5 5 5 4
9 9 9 10 11 11 11 12 12 13 13 13 14 13 13 13 13 13 13 13 13 14 14 15 15 15 14 13 13 12 11 10 9 10 10 11 10 10 10 10 10 9 8 8 8 7 7 7 7 7 6 7 7 7 8 9 10 11 10 9 9 8 7 6 5 5 5 5 5
8 9 9 10 10 11 12 12 13 13 13 13 13 13 13 13 13 13 14 14 14 14 14 15 15 14 13 13 12 11 11 10 10 10 10 11 10 10 10 10 10 10 10 9 9 9 9 9 9 8 8 8 8 8 9 9 10 10 10 9 8 7 6 5 5 5 5 5 4
Wind_Direction
275 277 281 285 287 288 286 284 282 280 279 277 276 275 273 272 271 270 269 270 272 274 276 278 278 279 279 278 275 272 265 255 245 237 234 234 236 238 240 243 245 247 249 252 254 255 253 253 259 262 259 250 241 237 236 239 247 256 262 262 256 248 242 241 246 251 256 259 259
273 274 277 281 284 286 287 288 287 286 285 283 281 279 276 274 272 270 270 269 270 272 274 276 278 280 280 278 275 271 264 254 243 234 231 230 231 232 235 237 240 242 246 250 255 255 251 247 251 254 254 252 247 243 243 247 252 255 256 253 251 249 249 250 255 259 261 261 260
276 275 275 277 281 285 287 289 289 289 288 287 285 281 278 275 272 271 270 269 269 269 270 273 276 278 280 279 274 268 262 253 243 234 228 226 226 228 230 232 235 239 241 244 250 255 256 253 253 254 255 256 254 249 246 247 252 252 250 247 246 248 252 256 260 263 263 262 259
276 277 277 278 282 286 289 290 289 288 288 286 285 283 280 277 274 271 269 267 267 267 267 269 271 274 277 278 274 266 258 250 242 233 228 225 224 225 226 230 236 241 242 242 245 257 268 267 262 258 256 254 249 243 241 246 250 247 242 242 244 248 254 260 264 268 270 270 268
277 277 278 280 282 285 287 288 289 288 287 285 284 284 283 281 278 274 269 266 264 264 264 265 266 268 271 274 271 262 251 243 236 230 226 225 225 227 230 235 240 244 246 245 249 261 269 270 266 260 253 245 237 236 241 248 244 237 235 243 251 258 262 266 271 276 279 279 277
282 279 278 279 281 283 285 286 287 287 287 285 284 285 286 286 284 280 274 268 263 261 260 260 262 264 267 269 266 254 242 234 228 225 224 225 227 231 234 237 237 238 240 246 251 256 258 257 253 245 237 232 232 236 238 237 228 228 239 253 261 266 268 272 275 278 281 283 283
286 284 282 282 281 282 283 284 285 285 285 285 285 287 289 290 289 286 280 273 266 261 259 258 258 260 263 263 258 246 235 227 223 223 224 227 230 233 234 233 232 234 237 241 243 244 244 243 235 227 223 226 227 225 219 215 227 241 252 258 263 265 268 272 277 282 288 290 291
288 285 283 282 282 282 282 283 284 284 284 285 287 290 292 294 293 290 285 279 271 264 259 257 256 256 256 252 246 237 228 222 221 223 226 228 230 231 231 231 231 232 233 233 231 229 226 223 215 211 210 208 206 205 211 223 238 249 257 262 266 268 271 279 290 300 302 302 302
289 284 281 280 280 280 280 282 283 284 285 287 289 292 294 295 294 291 287 279 271 264 257 250 247 244 240 236 231 225 221 219 218 220 224 226 227 228 227 225 221 215 209 203 201 201 200 197 195 196 199 204 206 210 217 231 246 259 268 273 282 293 304 317 329 328 320 314 312
294 289 285 282 280 278 278 281 282 284 287 289 290 291 293 291 289 286 281 273 265 253 239 227 220 217 215 214 213 212 210 209 207 210 215 218 217 213 206 195 184 175 170 170 174 179 182 185 190 197 205 211 212 218 229 245 262 276 287 299 334 350 348 343 342 338 330 323 319
300 296 293 289 284 280 280 280 281 283 284 284 284 285 285 281 275 270 263 253 234 214 200 195 192 192 194 197 198 199 199 199 199 198 196 191 184 173 164 158 156 155 157 162 168 175 183 192 202 209 213 219 218 219 240 275 290 305 0 16 17 12 2 346 342 341 338 332 330
305 302 299 291 282 277 274 268 263 258 255 257 254 259 259 243 228 219 210 199 184 175 174 176 176 179 182 183 183 184 184 181 178 171 163 155 150 147 146 146 149 152 157 162 169 178 188 198 211 216 218 225 208 109 72 59 71 86 71 43 27 19 12 1 354 350 348 344 341
318 319 308 251 225 221 214 200 184 168 158 150 149 153 162 170 175 181 183 180 171 164 162 162 162 161 161 161 161 160 159 156 151 147 142 139 139 139 141 144 147 152 154 155 158 162 166 172 180 171 143 117 95 83 78 75 77 73 64 50 40 33 28 20 11 3 357 353 350
99 103 113 126 140 152 153 146 137 131 128 129 129 132 138 147 154 162 167 165 158 152 150 150 146 143 142 142 142 142 141 140 139 137 135 134 135 136 137 139 142 142 137 131 127 124 120 114 110 107 104 100 94 89 88 88 80 69 59 54 51 46 41 34 24 14 6 -0 358
117 117 120 124 128 132 132 125 122 123 124 125 127 131 135 136 139 144 146 143 140 140 140 138 134 133 133 134 135 135 135 136 137 137 135 133 132 132 132 133 134 133 129 124 121 118 115 111 108 105 101 98 97 100 104 102 93 78 68 62 57 52 47 40 34 25 17 11 8
115 116 117 119 118 119 118 117 120 123 124 123 126 128 130 130 133 135 133 132 133 134 134 131 131 130 131 133 134 136 137 137 138 137 135 133 132 131 130 128 127 126 127 128 127 125 122 119 116 113 111 108 108 109 109 103 93 83 75 68 63 59 54 49 43 36 29 23 18
104 106 107 109 110 111 114 117 119 121 122 122 124 126 126 128 130 131 130 130 131 132 132 132 133 134 135 136 138 140 140 138 136 135 132 131 130 129 127 123 120 119 120 122 121 119 117 115 114 115 117 116 111 106 101 94 87 81 74 69 66 63 60 56 52 47 42 35 27
98 102 105 107 108 109 112 115 117 119 120 121 123 124 125 127 128 128 130 130 131 132 132 133 135 138 139 138 139 140 140 136 133 131 129 127 126 124 120 116 113 111 112 113 112 110 109 108 107 106 106 104 99 92 87 82 78 74 69 66 64 62 61 59 57 54 51 44 36
100 103 105 107 108 110 113 114 116 118 119 121 122 122 123 125 127 127 128 128 129 130 131 132 134 136 138 137 136 136 135 132 129 126 124 123 122 119 115 110 106 104 104 105 106 106 105 103 100 96 93 89 84 78 74 70 68 66 65 65 65 64 64 63 61 58 54 47 41
104 104 106 108 112 114 115 116 117 119 120 121 121 120 120 122 126 126 125 124 127 130 131 131 133 135 136 137 135 133 132 130 126 123 120 119 116 112 108 105 102 100 100 101 102 101 99 96 92 88 82 78 74 71 68 65 65 66 68 69 72 71 69 66 62 57 52 47 42
105 106 108 111 114 116 116 118 120 121 121 120 119 117 116 118 119 119 118 120 124 127 128 128 130 131 133 134 132 128 125 122 117 113 110 109 105 103 102 103 103 102 101 100 100 98 95 91 87 82 77 73 71 69 68 68 70 74 77 80 81 79 73 66 60 56 52 48 45
107 108 110 112 114 116 118 120 121 120 119 117 116 115 113 112 110 109 110 113 115 115 114 114 115 117 119 121 121 117 113 109 105 103 102 101 100 99 100 101 102 101 100 98 97 97 96 94 87 81 76 75 74 72 72 75 81 86 89 89 86 80 72 65 59 57 54 53 51
112 113 115 116 118 119 119 119 119 118 117 117 117 116 114 110 107 107 107 107 107 106 105 103 101 101 102 104 106 107 108 107 104 103 101 100 99 98 99 99 99 98 95 92 91 93 96 96 92 86 82 81 83 83 85 87 91 94 95 91 85 78 72 67 63 62 64 67 71
118 118 119 119 119 119 118 117 117 116 116 115 115 115 115 113 111 110 108 106 104 103 103 101 99 99 99 102 104 107 109 110 108 106 104 102 101 100 100 99 96 94 90 87 87 88 91 94 95 93 90 89 92 96 98 98 97 96 93 89 82 78 76 76 77 81 90 103 115
123 121 121 120 119 119 118 117 116 115 114 114 114 115 114 114 113 112 109 106 104 103 103 103 104 106 108 109 111 112 113 113 111 109 108 107 106 105 102 99 95 91 88 87 87 88 89 90 91 92 93 95 98 102 102 101 97 92 85 80 77 79 83 89 96 105 121 141 148
125 125 124 123 123 122 121 119 118 116 115 115 115 115 115 114 114 112 110 108 106 106 106 108 109 111 113 114 115 115 115 114 113 112 111 109 107 104 100 95 90 87 87 87 89 89 89 88 87 86 87 89 94 100 103 102 98 92 85 80 78 78 84 98 113 123 135 152 148
128 127 127 127 127 125 124 123 121 120 119 118 118 117 116 116 116 115 113 111 111 110 110 109 109 110 110 111 112 112 111 110 110 110 108 106 102 98 93 89 87 86 87 90 91 91 90 89 87 85 83 82 86 92 100 103 103 99 95 92 90 89 92 102 120 134 142 146 145
130 130 130 129 128 127 127 126 125 124 122 121 120 119 119 119 118 117 116 115 114 112 109 106 105 105 105 105 105 105 106 106 105 104 101 98 95 92 91 90 90 91 92 93 93 92 91 90 90 90 88 86 86 90 97 104 108 110 108 108 108 109 111 115 126 138 146 150 155
133 133 132 129 127 128 129 128 126 124 122 121 120 120 120 120 119 118 117 115 113 110 107 106 106 106 104 103 104 104 104 103 102 100 97 95 94 94 95 95 96 96 96 95 93 92 93 94 96 97 97 96 93 95 101 108 113 118 120 120 121 123 124 125 129 140 153 163 170
138 137 133 130 129 130 129 128 126 123 122 122 123 124 123 121 118 115 114 112 109 109 111 112 112 110 107 106 106 105 103 102 101 100 99 99 100 100 100 99 99 98 96 95 94 95 97 100 101 104 105 107 104 103 107 112 118 122 125 126 127 127 127 129 137 148 163 177 189
143 141 137 134 133 132 131 130 127 125 124 124 125 124 121 116 112 110 109 109 110 113 116 117 114 112 110 108 107 105 104 103 103 103 104 105 104 103 102 101 100 98 97 96 97 99 101 103 106 109 111 111 108 107 109 113 119 124 126 126 126 125 127 132 138 147 159 173 191
147 145 141 137 134 132 130 128 126 125 124 124 122 118 114 110 109 109 110 111 113 116 117 116 114 112 111 109 108 107 107 108 108 108 108 108 107 105 104 102 99 98 99 100 101 103 104 106 108 109 108 107 107 107 109 114 122 125 126 125 123 125 126 128 128 129 128 129 129
149 145 140 135 131 129 128 126 126 125 124 121 118 115 113 112 113 113 113 114 115 116 116 115 114 112 111 110 110 110 111 112 111 111 110 109 108 105 102 98 97 98 101 104 105 106 108 109 110 110 109 109 111 114 119 125 131 133 131 128 127 126 126 124 122 119 116 115 113
148 142 137 132 129 128 127 127 128 127 124 120 117 116 116 117 118 118 117 116 116 116 116 116 115 115 115 115 115 115 115 115 115 114 112 110 108 104 99 97 97 101 105 106 107 108 109 112 114 115 118 121 125 130 134 137 139 138 134 130 129 128 126 122 116 112 106 102 97
148 143 137 134 132 130 130 130 130 128 124 121 119 118 119 120 120 120 120 119 119 118 118 119 120 121 121 121 121 120 119 119 119 117 115 112 109 104 101 100 103 106 108 108 108 109 111 115 118 122 127 131 134 138 141 142 140 138 134 131 127 124 119 112 102 93 84 75 66
151 146 142 139 136 135 134 133 131 128 125 123 122 122 122 122 122 122 123 124 123 122 121 122 123 123 122 122 122 123 124 124 123 121 119 117 113 109 106 106 107 108 109 108 109 111 113 116 120 124 129 133 136 139 142 141 139 136 132 127 121 116 109 101 95 88 80 68 54
153 150 147 142 140 138 136 135 132 128 126 125 125 124 124 123 124 125 126 128 127 125 124 125 124 124 123 124 125 127 130 132 131 128 126 123 120 117 114 112 111 110 108 108 109 109 111 114 119 124 130 134 137 140 141 139 135 131 127 121 116 111 107 102 96 90 82 72 57
154 153 150 144 141 139 138 136 132 129 127 127 126 126 126 126 126 127 130 132 130 128 127 128 126 127 128 130 132 133 136 140 139 136 130 126 125 123 121 118 115 112 109 108 108 107 108 110 117 124 131 136 138 139 138 135 130 126 122 118 114 111 107 103 97 90 84 75 64
154 153 149 144 141 139 138 136 133 131 130 128 128 128 129 130 130 132 135 137 136 134 132 130 129 131 134 137 137 135 135 138 138 134 128 125 126 127 125 120 116 113 111 108 107 105 104 106 113 120 126 129 132 133 133 130 126 123 119 116 114 110 106 100 92 84 77 73 71
153 150 147 143 141 140 138 136 135 133 133 132 132 132 134 136 137 139 141 141 140 138 136 134 134 137 142 144 143 138 134 133 132 129 127 127 129 130 127 122 118 115 112 108 106 103 101 102 107 113 118 120 123 126 128 128 124 121 118 115 111 106 99 91 80 70 63 63 71
151 149 147 144 143 142 141 138 137 137 138 138 138 139 142 143 143 143 143 142 140 139 139 139 141 145 149 151 149 145 140 135 132 131 133 134 135 134 131 125 119 115 110 106 105 102 100 100 103 107 112 115 119 122 125 125 122 118 114 110 105 98 89 79 66 54 46 46 58